Wind_Speed
4 5 4 8 4 6 5 4 6 7 2 6 2 5 7 5 2 4 5 5 3 7 6 16 15 21 19 27 35 37 34 31 29 26 26 24 25 24 23 22 21 22 22 22
6 3 4 7 4 4 4 4 7 9 4 2 6 8 4 4 1 2 5 5 6 7 8 15 18 10 7 7 23 34 34 31 29 27 27 24 25 25 24 22 23 24 23 23
3 5 7 5 5 8 5 4 5 5 9 1 6 5 6 3 5 2 3 1 7 11 10 11 20 13 11 18 11 25 28 29 27 25 24 22 23 22 23 24 24 25 24 25
5 4 5 7 4 2 5 1 5 6 5 3 6 3 6 6 1 2 3 2 2 10 8 8 16 27 27 30 29 26 26 26 27 27 27 28 29 22 29 30 28 27 27 26
5 7 7 5 6 2 8 7 3 2 2 3 11 5 6 4 8 6 4 6 4 5 9 9 11 18 25 29 30 21 24 27 28 29 31 32 31 31 28 28 28 28 27 27
5 5 2 3 7 3 11 4 4 3 2 4 5 3 6 4 4 6 5 7 4 6 6 8 13 16 22 27 26 20 24 22 27 30 32 33 34 32 29 27 30 30 28 28
7 5 6 3 7 6 10 8 4 6 5 2 5 4 5 6 4 3 6 8 8 5 6 9 12 14 19 23 24 21 22 27 28 27 32 35 34 31 32 31 31 32 32 33
4 9 7 7 2 3 4 3 3 1 3 5 7 5 4 4 5 5 7 5 7 5 3 5 7 15 17 23 25 20 18 21 24 32 32 34 34 35 34 35 34 35 36 36
4 6 5 1 2 2 5 5 1 2 1 2 4 5 7 4 5 6 8 9 9 7 1 4 9 14 17 21 25 23 23 22 26 30 35 36 37 37 39 40 38 38 38 37
1 5 1 6 2 2 3 2 4 4 4 5 5 5 4 4 6 7 9 10 9 7 8 6 5 9 12 18 19 20 25 25 27 30 34 35 36 37 39 36 40 39 42 40
2 2 7 4 4 2 5 3 5 4 3 2 4 6 4 3 6 8 8 10 10 10 8 7 9 8 5 7 9 14 17 22 26 27 30 31 32 34 36 34 37 38 41 39
1 3 4 7 2 2 1 1 4 3 5 1 2 5 4 4 8 7 13 9 10 9 8 7 9 7 6 5 6 9 9 13 18 23 26 30 31 33 35 37 36 36 38 39
2 1 5 9 4 3 1 0 4 4 3 5 3 5 1 12 20 20 12 10 10 9 10 9 8 10 12 12 10 9 10 12 15 16 19 23 28 31 33 34 34 36 36 35
3 3 7 6 10 0 6 3 3 5 3 3 7 9 12 12 16 20 20 12 8 8 9 9 10 14 21 20 16 13 13 12 16 17 18 19 23 28 31 33 35 35 35 33
3 5 5 6 9 5 9 13 5 8 6 5 4 3 7 14 15 13 13 15 15 15 14 11 8 8 18 23 23 21 18 15 15 16 16 18 20 24 26 27 28 30 30 31
1 4 1 4 9 8 8 14 8 7 4 8 11 1 10 9 12 12 14 17 17 17 17 17 16 21 21 24 24 24 22 18 16 17 18 17 16 19 23 24 26 28 28 30
3 2 3 4 3 7 6 1 4 6 9 3 4 6 13 15 18 14 11 14 15 16 17 18 17 22 26 27 31 30 28 22 20 20 19 18 17 17 21 22 24 26 29 31
5 6 4 4 1 2 2 11 12 16 9 10 8 10 11 14 16 15 6 19 20 19 18 18 24 29 32 35 34 36 33 28 23 23 21 20 20 21 18 19 25 26 28 31
8 4 2 3 3 5 7 4 4 5 5 10 11 11 12 15 14 5 14 17 16 16 25 27 28 29 33 32 32 34 38 36 28 29 27 24 21 22 23 22 24 26 27 27
6 3 3 1 3 5 3 6 6 4 5 11 10 10 14 16 9 9 22 22 25 27 29 34 38 36 31 31 32 30 29 28 31 35 34 30 24 23 25 24 25 27 27 27
3 1 5 4 4 2 8 14 9 4 3 12 10 12 13 10 10 19 23 28 32 31 34 35 31 32 35 36 36 33 30 28 34 36 37 33 27 25 25 23 23 24 24 25
2 2 3 1 3 7 13 4 5 6 9 12 13 13 13 13 16 17 18 19 26 33 40 35 34 34 35 35 33 35 33 34 35 35 34 33 31 27 26 24 23 22 24 24
2 2 2 2 1 6 10 10 5 6 8 9 9 11 12 13 15 18 18 21 27 30 31 36 38 37 34 32 32 34 36 37 37 34 32 30 30 28 28 25 24 23 25 24
2 3 1 3 5 4 9 8 6 7 6 9 9 11 13 13 15 15 15 20 24 28 30 33 33 33 38 39 38 36 36 35 37 32 33 29 28 29 29 26 25 24 24 22
1 4 1 3 4 5 4 10 7 7 6 6 11 9 11 12 14 16 14 20 24 27 30 31 32 33 35 38 38 38 39 35 34 30 29 29 27 25 25 26 26 27 27 30
2 1 2 1 3 2 3 5 8 6 8 9 8 10 12 12 13 20 18 22 24 26 28 30 32 34 37 37 37 37 37 33 31 27 23 24 22 23 22 20 15 18 24 24
Wind_Direction
348 41 330 295 238 246 255 261 282 296 272 360 265 266 274 241 191 196 238 230 204 155 178 156 183 200 215 179 181 188 189 193 191 195 194 197 196 196 200 203 204 203 200 200
7 312 276 289 263 320 293 298 315 299 270 318 340 293 306 205 311 184 217 223 218 171 152 125 113 123 201 186 178 185 188 186 192 194 194 195 195 199 204 206 207 207 208 208
217 267 328 351 327 352 328 247 293 263 315 44 352 0 1 344 17 43 7 262 166 150 156 128 117 136 174 220 216 197 197 196 197 197 194 194 194 202 207 208 208 208 210 211
250 303 335 327 321 42 312 170 289 301 16 340 24 350 359 348 27 268 261 306 253 162 157 156 149 165 192 205 211 208 207 206 206 201 198 198 199 199 210 211 210 210 212 213
280 336 349 336 301 359 255 331 304 322 64 30 354 64 298 356 24 11 330 284 237 148 171 164 168 176 194 210 212 200 218 214 210 211 210 211 215 219 220 217 216 216 216 215
261 289 294 272 311 283 293 0 42 41 44 37 318 82 332 8 299 330 356 347 298 167 182 182 190 189 210 217 212 216 206 221 222 218 220 221 223 224 220 217 217 218 219 217
331 319 325 357 344 354 12 29 357 10 12 247 332 52 247 307 328 322 335 360 5 157 169 186 199 199 207 214 219 229 222 217 216 231 228 228 230 232 232 228 222 220 219 219
21 334 10 345 54 303 339 63 112 321 344 294 337 5 299 300 320 336 22 15 55 42 317 258 221 219 225 227 234 235 233 225 226 221 233 237 237 238 239 237 233 231 226 228
6 287 314 337 352 76 329 32 198 103 311 346 302 311 318 351 11 23 24 19 356 348 346 243 253 245 237 235 236 238 242 241 232 235 236 235 236 238 240 243 240 241 236 236
236 303 306 294 19 20 84 196 19 12 24 336 320 301 246 347 341 353 9 9 335 326 325 313 269 276 267 253 247 239 242 238 242 239 238 237 237 238 241 236 240 243 246 238
122 123 290 351 37 315 346 28 50 108 97 81 329 285 224 346 41 6 336 338 316 322 310 315 311 296 285 280 272 269 265 262 263 260 258 254 250 246 244 236 239 241 243 245
1 148 297 270 290 257 267 85 99 90 306 91 182 275 338 67 342 334 318 320 316 317 311 326 343 344 323 311 296 294 281 267 268 271 271 265 258 247 239 240 245 242 242 243
179 323 333 338 2 12 89 212 111 95 70 211 171 260 244 5 354 340 330 313 310 320 333 338 2 2 354 343 317 293 291 292 287 282 272 265 263 257 250 250 245 238 241 238
147 178 179 208 263 248 298 257 190 137 166 222 231 274 338 351 348 344 339 331 304 337 352 355 360 356 358 355 345 327 312 304 300 296 286 273 264 260 259 259 250 246 243 239
144 246 173 249 274 264 267 272 225 192 205 213 242 153 353 349 344 341 353 12 21 18 12 2 351 343 353 355 349 341 327 313 305 296 290 285 283 273 264 253 248 248 244 236
26 271 116 253 253 273 273 283 251 222 221 243 272 301 357 340 341 360 10 15 13 4 357 353 351 350 346 344 344 340 329 312 308 305 300 296 283 278 274 264 255 246 240 225
192 200 11 287 353 309 298 91 115 100 50 325 53 357 342 346 343 338 358 17 4 351 346 343 340 339 337 333 337 337 332 318 302 298 300 297 289 275 269 264 252 241 231 224
197 152 166 248 12 286 36 55 97 104 72 37 29 360 342 326 319 296 19 16 349 342 339 335 334 334 330 326 327 335 331 321 302 290 287 289 288 278 265 256 249 236 224 214
198 133 221 219 211 302 142 37 21 48 81 32 357 340 333 340 320 282 22 355 333 328 327 323 322 319 318 318 324 326 324 320 308 292 286 283 279 272 266 250 239 233 220 205
107 93 144 154 223 241 33 327 316 261 190 10 352 341 345 342 335 309 333 332 329 327 324 323 321 317 315 314 317 313 307 306 302 299 298 289 274 263 257 249 238 227 215 204
103 101 217 239 263 273 336 313 305 196 344 338 343 339 337 331 304 312 321 324 326 323 324 323 317 313 314 315 314 308 304 296 298 304 299 289 273 256 253 247 234 224 207 198
153 171 215 186 267 261 346 20 44 333 327 336 337 337 328 318 314 320 323 322 322 325 327 326 319 315 313 311 309 302 299 300 297 297 293 284 272 252 240 233 224 211 198 185
218 256 204 204 49 92 54 87 41 340 325 334 330 336 325 326 332 329 327 328 328 326 322 323 322 318 316 313 306 300 298 299 296 293 286 274 263 245 231 221 210 196 193 184
105 354 206 192 159 115 92 78 39 351 341 334 334 333 339 332 330 327 323 326 327 324 323 326 324 321 319 319 312 301 299 298 291 289 283 263 246 230 222 217 209 196 192 189
354 339 357 273 23 360 162 56 31 352 350 342 344 346 341 334 333 332 326 327 326 327 332 331 327 325 320 320 316 315 307 298 292 289 275 245 228 213 208 208 204 201 203 196
345 192 158 223 29 232 279 11 7 353 356 347 345 338 343 341 333 333 331 330 326 332 331 331 328 325 326 323 323 317 319 311 289 280 271 242 216 204 201 191 178 200 200 192
Height
800 809 810 803 801 799 799 797 792 774 767 769 763 763 757 754 756 760 760 761 762 766 766 763 771 776 783 777 780 786 790 795 798 801 804 806 809 813 816 819 822 824 826 827
808 807 797 797 792 793 789 790 789 777 767 769 766 761 757 755 756 757 758 759 761 766 767 764 770 774 783 784 783 787 789 791 795 798 801 804 807 811 814 817 819 821 823 825
810 799 795 795 794 795 791 790 787 788 775 766 770 767 767 759 760 756 758 759 759 757 763 761 758 776 781 785 785 787 789 790 793 797 800 803 806 809 812 813 816 818 820 822
808 797 798 797 793 796 800 783 786 786 783 787 780 786 771 772 760 760 761 761 761 760 762 761 763 767 780 784 784 783 785 787 791 795 797 798 799 802 804 808 812 814 816 818
804 803 802 799 793 795 792 787 786 781 784 786 788 794 779 770 771 768 763 763 760 760 762 762 768 775 779 782 779 779 780 784 789 793 793 795 796 799 802 806 810 812 813 815
809 802 801 797 794 791 789 786 786 794 796 808 800 804 792 784 781 772 768 767 763 761 762 764 770 775 778 776 779 780 779 781 786 790 792 793 794 796 800 802 804 807 810 812
818 804 802 800 798 793 797 803 820 815 818 812 804 804 791 785 778 775 773 772 770 766 766 768 771 772 773 773 776 776 776 777 779 786 789 791 792 794 797 800 801 802 805 806
841 831 808 805 805 807 810 812 835 816 826 824 806 797 791 780 780 778 778 779 777 777 774 772 770 771 770 769 771 771 772 771 779 778 783 786 788 790 792 796 797 798 799 802
835 825 810 805 805 808 807 822 815 821 824 831 818 799 784 778 777 779 781 780 780 775 774 771 772 771 771 771 771 769 767 769 773 775 776 780 781 784 786 788 791 794 795 796
825 836 813 809 806 807 806 811 821 834 825 822 822 820 812 784 783 782 782 782 781 777 775 773 773 769 770 770 768 768 772 771 771 773 775 774 775 777 779 783 784 786 790 792
825 834 823 814 814 817 820 816 825 833 837 835 844 820 801 790 794 792 786 786 782 778 774 772 768 768 767 765 766 766 766 769 769 770 769 770 770 773 775 777 778 778 782 785
827 840 842 821 814 816 815 815 828 838 838 846 843 833 799 797 800 796 788 786 779 776 773 771 766 765 766 765 764 764 765 767 767 767 766 766 766 766 770 770 769 771 773 775
825 837 847 826 819 816 813 814 821 836 842 841 843 825 797 799 795 793 795 790 784 778 773 769 766 766 765 764 764 764 765 764 765 764 763 762 762 761 761 761 764 766 768 769
822 837 835 847 822 825 826 821 819 828 850 836 833 814 806 814 812 803 796 791 789 784 782 778 773 770 769 767 767 765 763 760 761 760 759 757 757 757 757 758 758 758 760 763
827 831 844 835 831 830 824 821 827 836 826 826 817 820 827 825 823 816 811 797 792 793 790 787 785 781 776 772 768 764 763 764 764 760 755 753 751 752 751 753 753 753 752 755
835 831 831 834 824 826 822 814 818 822 821 822 817 821 833 829 824 817 816 810 805 803 798 793 788 783 778 776 774 770 766 763 760 758 755 752 749 747 747 747 749 749 751 753
835 837 836 829 825 822 815 799 808 825 835 832 830 842 839 834 829 822 819 814 813 809 804 798 793 788 782 776 771 767 763 759 756 753 750 749 746 744 745 745 747 746 748 750
830 836 838 837 825 833 821 820 816 834 842 842 840 842 845 840 834 825 825 820 819 813 807 801 795 788 782 777 771 766 760 757 754 751 748 746 745 743 741 742 745 744 744 743
826 834 837 833 839 818 820 825 827 829 847 853 855 850 846 838 829 818 817 826 826 819 812 806 800 794 785 777 770 764 758 754 750 745 743 742 742 741 741 739 737 739 739 740
828 830 833 840 833 820 830 836 835 836 836 858 858 854 849 845 835 823 823 823 818 819 813 803 794 789 782 776 770 763 757 752 747 741 738 737 736 736 736 736 735 734 736 737
833 840 835 836 832 824 853 841 834 820 853 861 859 857 854 854 852 841 834 822 818 815 807 802 796 788 779 771 766 758 752 746 740 736 732 731 729 727 729 729 728 729 730 733
818 828 835 837 835 827 855 843 843 871 863 862 858 856 855 853 848 841 836 830 823 813 798 797 789 780 775 771 765 754 747 741 736 730 726 722 721 720 722 722 723 725 728 730
830 845 841 845 847 861 866 866 870 869 867 866 864 860 857 851 846 841 834 827 820 813 807 798 786 775 769 765 761 750 743 739 731 725 718 714 713 714 715 715 717 721 723 726
853 858 846 851 862 863 867 870 872 871 869 868 864 859 855 852 847 842 836 828 821 814 806 798 789 779 766 759 753 746 737 732 725 717 709 706 706 708 710 709 712 714 718 721
863 862 864 858 864 860 863 868 872 871 870 868 863 858 856 852 847 842 835 828 822 814 806 798 789 779 768 758 746 738 729 723 715 708 703 699 698 702 703 703 704 707 710 713
873 876 873 868 870 874 871 872 873 871 868 865 861 858 855 852 847 841 835 828 821 813 806 797 789 778 766 755 744 733 724 716 708 701 696 694 691 693 697 700 702 705 707 711